#timestamp,LO_Frequency,Hit,StdDev 
1457197215.2,286046993.8,N
1457197235.0,286046994.5,N
1457197235.9,286046994.5,N
1457197255.8,286046995.7,N
1457197275.6,286046995.2,N
1457197295.4,286046995.2,N
1457197315.3,286046996.3,N
1457197335.1,286046993.7,N
1457197336.0,286046993.7,N
1457197355.8,286046995.5,N
1457197375.7,286046995.9,N
1457197395.5,286046996.2,N
1457197415.3,286046993.8,N
1457197435.2,286046993.8,N
1457197455.9,286046995.3,N
1457197475.7,286046995.6,N
1457197495.5,286046997.4,N
1457197515.4,286046999.6,N
1457197535.2,286047002.1,N
1457197555.0,286047000.4,N
1457197555.9,286047000.4,N
1457197575.8,286047000.1,N
1457197595.6,286047002.7,N
1457197615.4,286047002.2,N
1457197635.3,286047001.8,N
1457197655.1,286047003.6,N
1457197675.8,286047007.6,N
1457197695.7,286047007.6,N
1457197715.5,286047004.6,N
1457197735.3,286047003.3,N
1457197755.2,286047002.0,N
1457197775.9,286047001.2,N
1457197795.7,286047002.3,N
1457197815.6,286047002.8,N
1457197835.4,286046998.4,N
1457197855.2,286046999.2,N
1457197875.0,286046995.3,N
1457197875.9,286046995.3,N
1457197895.8,286046999.2,N
1457197915.6,286046997.9,N
1457197935.4,286046994.9,N
1457197955.3,286046995.1,N
1457197975.1,286046995.5,N
1457197995.8,286046994.0,N
1457198015.7,286046994.0,N
1457198035.5,286046994.4,N
1457198055.3,286046994.7,N
1457198075.2,286046993.9,N
1457198095.9,286046991.8,N
1457198115.7,286046992.4,N
1457198135.6,286046993.4,N
1457198155.4,286046992.9,N
1457198175.2,286046993.1,N
1457198195.1,286046992.3,N
1457198196.0,286046992.3,N
1457198215.8,286046992.9,N
1457198235.6,286046990.2,N
1457198255.4,286046993.0,N
1457198275.3,286046987.4,Y
1457198295.1,286046989.7,P
1457198315.9,286046989.9,P
1457198335.7,286046989.9,P
1457198355.5,286046989.5,Y
1457198375.4,286046999.6,P
1457198395.2,286046998.6,N
1457198415.0,286047001.2,N
1457198415.9,286047001.2,N
1457198435.7,286047000.0,N
1457198455.6,286046998.5,N
1457198475.4,286047001.5,N
1457198495.2,286047002.7,N
1457198515.1,286047002.8,N
1457198516.0,286047002.8,N
1457198535.8,286047005.7,N
1457198555.6,286047008.1,N
1457198575.5,286047012.3,Y
1457198595.3,286047008.6,P
1457198615.1,286047010.5,N
1457198635.9,286047013.9,P
1457198655.7,286047017.0,Y
1457198675.5,286047007.0,P
1457198695.4,286047008.0,P
1457198715.2,286047009.0,P
1457198735.0,286047006.3,Y
1457198735.9,286047006.3,P
1457198755.8,286046998.5,N
1457198775.6,286046999.8,N
1457198795.4,286047004.3,N
1457198815.3,286047002.9,N
1457198835.1,286047000.4,N
1457198836.0,286047000.4,N
1457198855.8,286047000.3,N
1457198875.7,286047002.2,N
1457198895.5,286046998.8,N
1457198915.3,286046996.0,N
1457198935.2,286046993.8,N
1457198955.9,286046994.3,N
1457198975.7,286046991.9,N
1457198995.5,286046993.9,N
1457199015.4,286046993.5,N
1457199035.2,286046994.5,N
1457199055.0,286046994.2,N
1457199055.9,286046994.2,N
1457199075.8,286046996.8,N
1457199095.6,286046994.0,N
1457199115.4,286046990.6,N
1457199135.3,286046988.7,N
1457199155.1,286046988.8,N
1457199156.0,286046988.8,N
1457199175.8,286046989.8,N
1457199195.7,286046987.0,N
1457199215.5,286046989.8,N
1457199235.3,286046989.0,N
1457199255.2,286046987.7,N
1457199275.9,286046984.0,Y
1457199295.7,286046992.7,P
1457199315.6,286046994.2,P
1457199335.4,286046992.1,P
1457199355.2,286046990.9,Y
1457199375.1,286046994.9,P
1457199376.0,286046994.9,P
1457199395.8,286046994.4,P
1457199415.6,286046994.4,Y
1457199435.5,286046996.5,P
1457199455.3,286046998.4,N
1457199475.1,286046996.9,N
1457199495.9,286046995.4,Y
1457199515.7,286046998.5,P
1457199535.5,286046996.6,P
1457199555.4,286046998.5,N
1457199575.2,286046999.4,N
1457199595.0,286046998.9,N
1457199595.9,286046998.9,N
1457199615.8,286046997.5,N
1457199635.6,286046998.7,N
1457199655.4,286046997.1,N
1457199675.2,286046998.7,N
1457199695.1,286046998.4,N
1457199696.0,286046998.4,N
1457199715.8,286046998.3,N
1457199735.6,286047000.6,N
1457199755.5,286047004.2,Y
1457199775.3,286047004.4,P
1457199795.1,286047002.2,N
1457199815.9,286047001.6,N
1457199835.7,286047004.0,N
1457199855.5,286047003.3,N
1457199875.4,286047003.0,N
1457199895.2,286047005.6,N
1457199915.0,286047001.5,N
1457199915.9,286047001.5,N
1457199935.8,286047002.5,N
1457199955.6,286047002.3,N
1457199975.4,286047002.8,N
1457199995.3,286047002.7,N
1457200015.1,286046999.7,N
1457200016.0,286046999.7,N
1457200035.8,286047000.1,N
1457200055.7,286047000.9,N
1457200075.5,286047000.7,N
1457200095.3,286046999.4,N
1457200115.1,286046996.6,N
1457200135.9,286046998.8,N
1457200155.7,286047000.8,N
1457200175.5,286046999.9,N
1457200195.4,286047001.2,N
1457200215.2,286047002.3,N
1457200235.0,286047000.2,N
1457200235.9,286047000.2,N
1457200255.8,286046996.5,N
1457200275.6,286046998.7,N
1457200295.4,286047002.8,N
1457200315.3,286047001.1,N
1457200335.1,286047002.0,N
1457200336.0,286047002.0,N
1457200355.8,286047002.4,N
1457200375.7,286047002.5,N
1457200395.5,286047001.4,N
1457200415.3,286047000.2,N
1457200435.1,286047001.0,N
1457200455.9,286047001.9,N
1457200475.7,286047001.7,N
1457200495.5,286047002.8,N
1457200515.4,286047003.2,N
1457200535.2,286047001.9,N
1457200555.0,286047001.8,N
1457200555.9,286047001.8,N
1457200575.8,286047002.3,N
1457200595.6,286047004.0,N
1457200615.4,286047001.2,N
1457200635.3,286046996.6,N
1457200655.1,286046996.5,N
1457200656.0,286046996.5,N
1457200675.8,286046996.7,N
1457200695.7,286046998.1,N
1457200715.5,286047000.0,N
1457200735.3,286047001.2,N
1457200755.2,286046998.4,N
1457200775.9,286047001.2,N
1457200795.7,286047000.3,N
